Location: Hilton Head Island
(32.2163°N, 80.7526°W)
Time: 12:37:37
(UTC-04:00)

S-56A Canister/Altair - Pass Details

Date: 24 February 2026
Orbit: 633 x 2484 km, 38.9° (Epoch: 10 March)

Event Time Altitude Azimuth Distance (km) Brightness Sun altitude
Exits shadow 06:22:44 - 257° (WSW) 4,318 10.7 -7.8°
Reaches altitude 10° 06:25:04 10° 246° (WSW) 4,142 10.7 -7.3°
Maximum altitude 06:29:40 13° 221° (SW) 4,177 10.9 -6.3°
Drops below altitude 10° 06:34:49 10° 198° (SSW) 4,727 11.5 -5.3°
Sets 06:42:06 0° 175° (S) 6,013 12.3 -3.7°
